QPF
0.00 0.00 0.00 0.00 0.00 0.00 0.00 0.00 0.00 0.00 0.00 0.00 0.00 0.00 0.00 0.00 0.00 0.00 0.00 0.00 0.01 0.00 0.00 0.00 0.00 0.00 0.00 0.00 0.00 0.00 0.00 0.00 0.00 0.00 0.00 0.00 0.00 0.00 0.00 0.00 0.00 0.01 0.01 0.00 0.00 0.00 0.00 0.00 0.00
0.00 0.00 0.00 0.00 0.00 0.00 0.00 0.00 0.00 0.00 0.00 0.00 0.00 0.00 0.00 0.00 0.00 0.00 0.00 0.00 0.00 0.00 0.00 0.00 0.00 0.00 0.00 0.00 0.00 0.00 0.00 0.00 0.00 0.00 0.00 0.00 0.00 0.00 0.00 0.00 0.00 0.02 0.02 0.01 0.00 0.00 0.00 0.00 0.00
0.00 0.00 0.00 0.00 0.00 0.00 0.00 0.00 0.00 0.00 0.00 0.00 0.00 0.00 0.00 0.00 0.00 0.00 0.00 0.00 0.00 0.00 0.00 0.00 0.00 0.00 0.00 0.00 0.00 0.00 0.00 0.00 0.00 0.00 0.00 0.00 0.00 0.00 0.00 0.00 0.00 0.01 0.01 0.01 0.00 0.00 0.00 0.00 0.00
0.00 0.00 0.00 0.00 0.00 0.00 0.00 0.00 0.00 0.00 0.00 0.00 0.00 0.00 0.00 0.00 0.00 0.00 0.00 0.00 0.00 0.00 0.00 0.00 0.00 0.00 0.00 0.00 0.00 0.00 0.00 0.00 0.00 0.00 0.00 0.00 0.00 0.00 0.00 0.00 0.01 0.02 0.01 0.00 0.01 0.01 0.00 0.00 0.00
0.00 0.00 0.00 0.00 0.00 0.00 0.00 0.00 0.00 0.00 0.00 0.00 0.00 0.00 0.00 0.00 0.00 0.00 0.00 0.00 0.00 0.00 0.00 0.00 0.00 0.00 0.00 0.00 0.00 0.00 0.00 0.00 0.00 0.00 0.00 0.01 0.01 0.00 0.00 0.00 0.00 0.00 0.01 0.01 0.01 0.01 0.00 0.00 0.00
0.00 0.00 0.00 0.00 0.00 0.00 0.00 0.00 0.00 0.00 0.00 0.00 0.00 0.00 0.00 0.00 0.00 0.00 0.00 0.00 0.00 0.00 0.00 0.00 0.00 0.00 0.00 0.00 0.00 0.00 0.00 0.00 0.00 0.00 0.00 0.00 0.01 0.02 0.01 0.01 0.00 0.00 0.00 0.00 0.00 0.00 0.00 0.00 0.00
0.00 0.00 0.00 0.00 0.00 0.00 0.00 0.00 0.00 0.00 0.00 0.00 0.00 0.00 0.00 0.00 0.00 0.00 0.00 0.00 0.00 0.00 0.00 0.00 0.00 0.00 0.00 0.00 0.00 0.00 0.00 0.00 0.00 0.00 0.00 0.00 0.01 0.02 0.03 0.03 0.01 0.00 0.00 0.00 0.00 0.00 0.00 0.00 0.00
0.00 0.00 0.00 0.00 0.00 0.00 0.00 0.00 0.00 0.00 0.00 0.00 0.00 0.00 0.00 0.00 0.00 0.00 0.00 0.00 0.00 0.00 0.00 0.00 0.00 0.00 0.00 0.00 0.00 0.00 0.00 0.00 0.00 0.00 0.00 0.00 0.00 0.00 0.02 0.03 0.03 0.02 0.00 0.00 0.00 0.00 0.00 0.00 0.00
0.00 0.00 0.00 0.00 0.00 0.00 0.00 0.00 0.00 0.00 0.00 0.00 0.00 0.00 0.00 0.00 0.00 0.00 0.00 0.00 0.00 0.00 0.00 0.00 0.00 0.00 0.00 0.00 0.00 0.00 0.00 0.00 0.00 0.00 0.00 0.00 0.00 0.00 0.00 0.01 0.02 0.02 0.01 0.00 0.00 0.00 0.00 0.00 0.00
0.00 0.00 0.00 0.00 0.00 0.00 0.00 0.00 0.00 0.00 0.00 0.00 0.00 0.00 0.00 0.00 0.00 0.00 0.00 0.00 0.00 0.00 0.00 0.00 0.00 0.00 0.00 0.00 0.00 0.00 0.00 0.00 0.00 0.00 0.00 0.00 0.00 0.00 0.00 0.00 0.00 0.01 0.02 0.01 0.00 0.00 0.00 0.00 0.00
0.00 0.00 0.00 0.00 0.00 0.00 0.00 0.00 0.00 0.00 0.00 0.00 0.00 0.00 0.00 0.00 0.00 0.00 0.00 0.00 0.00 0.00 0.00 0.00 0.00 0.00 0.00 0.00 0.00 0.00 0.00 0.00 0.00 0.00 0.00 0.00 0.00 0.00 0.00 0.00 0.00 0.00 0.01 0.01 0.01 0.01 0.00 0.00 0.00
0.00 0.00 0.00 0.00 0.00 0.00 0.00 0.00 0.00 0.00 0.00 0.00 0.00 0.00 0.00 0.00 0.00 0.00 0.00 0.00 0.00 0.00 0.00 0.00 0.00 0.00 0.00 0.00 0.00 0.00 0.00 0.00 0.00 0.00 0.00 0.00 0.00 0.00 0.00 0.00 0.00 0.00 0.00 0.00 0.01 0.01 0.02 0.00 0.00
0.00 0.00 0.00 0.00 0.00 0.00 0.00 0.00 0.00 0.00 0.00 0.00 0.00 0.00 0.00 0.00 0.00 0.00 0.00 0.00 0.00 0.00 0.00 0.00 0.00 0.00 0.00 0.00 0.00 0.00 0.00 0.00 0.00 0.00 0.00 0.00 0.00 0.00 0.00 0.00 0.00 0.00 0.00 0.00 0.00 0.00 0.01 0.00 0.00
0.00 0.00 0.00 0.00 0.00 0.00 0.00 0.00 0.00 0.00 0.00 0.00 0.00 0.00 0.00 0.00 0.00 0.00 0.00 0.00 0.00 0.00 0.00 0.00 0.00 0.00 0.00 0.00 0.00 0.00 0.00 0.00 0.00 0.00 0.00 0.00 0.00 0.00 0.00 0.00 0.00 0.00 0.00 0.00 0.00 0.00 0.00 0.00 0.00
0.00 0.00 0.00 0.00 0.00 0.00 0.00 0.00 0.00 0.00 0.00 0.00 0.00 0.00 0.00 0.00 0.00 0.00 0.00 0.00 0.00 0.00 0.00 0.00 0.00 0.00 0.00 0.00 0.00 0.00 0.00 0.00 0.00 0.00 0.00 0.00 0.00 0.00 0.00 0.00 0.00 0.00 0.00 0.00 0.00 0.00 0.01 0.00 0.00
0.00 0.00 0.00 0.00 0.00 0.00 0.00 0.00 0.00 0.00 0.00 0.00 0.00 0.00 0.00 0.00 0.00 0.00 0.00 0.00 0.00 0.00 0.00 0.00 0.00 0.00 0.00 0.00 0.00 0.00 0.00 0.00 0.00 0.00 0.00 0.00 0.00 0.00 0.00 0.00 0.00 0.00 0.00 0.00 0.00 0.01 0.01 0.01 0.01
0.00 0.00 0.00 0.00 0.00 0.00 0.00 0.00 0.00 0.00 0.00 0.00 0.00 0.00 0.00 0.00 0.00 0.00 0.00 0.00 0.00 0.00 0.00 0.00 0.00 0.00 0.00 0.00 0.00 0.00 0.00 0.00 0.00 0.00 0.00 0.00 0.00 0.00 0.00 0.00 0.00 0.00 0.00 0.00 0.00 0.01 0.01 0.01 0.01
0.00 0.00 0.00 0.00 0.00 0.00 0.00 0.00 0.00 0.00 0.00 0.00 0.00 0.00 0.00 0.00 0.00 0.00 0.00 0.00 0.00 0.00 0.00 0.00 0.00 0.00 0.00 0.00 0.00 0.00 0.00 0.00 0.00 0.00 0.00 0.00 0.00 0.00 0.00 0.00 0.00 0.00 0.00 0.00 0.00 0.00 0.01 0.02 0.04
0.00 0.00 0.00 0.00 0.00 0.00 0.00 0.00 0.00 0.00 0.00 0.00 0.00 0.00 0.00 0.00 0.00 0.00 0.00 0.00 0.00 0.00 0.00 0.00 0.00 0.00 0.00 0.00 0.00 0.00 0.00 0.00 0.00 0.00 0.00 0.00 0.00 0.00 0.00 0.00 0.00 0.00 0.00 0.00 0.00 0.00 0.00 0.01 0.03
0.00 0.00 0.00 0.00 0.00 0.00 0.00 0.00 0.00 0.00 0.00 0.00 0.00 0.00 0.00 0.00 0.00 0.00 0.00 0.00 0.00 0.00 0.00 0.00 0.00 0.00 0.00 0.00 0.00 0.00 0.00 0.00 0.00 0.00 0.00 0.00 0.00 0.00 0.00 0.00 0.00 0.00 0.00 0.00 0.00 0.00 0.00 0.00 0.03
0.00 0.00 0.00 0.00 0.00 0.00 0.00 0.00 0.00 0.00 0.00 0.00 0.00 0.00 0.00 0.00 0.00 0.00 0.00 0.00 0.00 0.00 0.00 0.00 0.00 0.00 0.00 0.00 0.00 0.00 0.00 0.00 0.00 0.00 0.00 0.00 0.00 0.00 0.00 0.00 0.00 0.00 0.00 0.00 0.00 0.00 0.00 0.00 0.01
0.00 0.00 0.00 0.00 0.00 0.00 0.00 0.00 0.00 0.00 0.00 0.00 0.00 0.00 0.00 0.00 0.00 0.00 0.00 0.00 0.00 0.00 0.00 0.00 0.00 0.00 0.00 0.00 0.00 0.00 0.00 0.00 0.00 0.00 0.00 0.00 0.00 0.00 0.00 0.00 0.00 0.00 0.00 0.00 0.00 0.00 0.00 0.00 0.00
0.00 0.00 0.00 0.00 0.00 0.00 0.00 0.00 0.00 0.00 0.00 0.00 0.00 0.00 0.00 0.00 0.00 0.00 0.00 0.00 0.00 0.00 0.00 0.00 0.00 0.00 0.00 0.00 0.00 0.00 0.00 0.00 0.00 0.00 0.00 0.00 0.00 0.00 0.00 0.00 0.00 0.00 0.00 0.00 0.00 0.00 0.00 0.00 0.00
0.00 0.00 0.00 0.00 0.00 0.00 0.00 0.00 0.00 0.00 0.00 0.00 0.00 0.00 0.00 0.00 0.00 0.00 0.00 0.00 0.00 0.00 0.00 0.00 0.00 0.00 0.00 0.00 0.00 0.00 0.00 0.00 0.00 0.00 0.00 0.00 0.00 0.00 0.00 0.00 0.00 0.00 0.00 0.00 0.00 0.01 0.00 0.00 0.00
0.00 0.00 0.00 0.00 0.00 0.00 0.00 0.00 0.00 0.00 0.00 0.00 0.00 0.00 0.00 0.00 0.00 0.00 0.00 0.00 0.00 0.00 0.00 0.00 0.00 0.00 0.00 0.00 0.00 0.00 0.00 0.00 0.00 0.00 0.00 0.00 0.00 0.00 0.00 0.00 0.00 0.00 0.00 0.00 0.00 0.00 0.01 0.00 0.00
0.00 0.00 0.00 0.00 0.00 0.00 0.00 0.00 0.00 0.00 0.00 0.00 0.00 0.00 0.00 0.00 0.00 0.00 0.00 0.00 0.00 0.00 0.00 0.00 0.00 0.00 0.00 0.00 0.00 0.00 0.00 0.00 0.00 0.00 0.00 0.00 0.00 0.00 0.00 0.00 0.00 0.00 0.00 0.00 0.00 0.01 0.01 0.00 0.00
0.00 0.00 0.00 0.00 0.00 0.00 0.00 0.00 0.00 0.00 0.00 0.00 0.00 0.00 0.00 0.00 0.00 0.00 0.00 0.00 0.00 0.00 0.00 0.00 0.00 0.00 0.00 0.00 0.00 0.00 0.00 0.00 0.00 0.00 0.00 0.00 0.00 0.00 0.00 0.00 0.00 0.00 0.00 0.00 0.00 0.00 0.00 0.01 0.01
0.00 0.00 0.00 0.01 0.02 0.00 0.00 0.00 0.00 0.00 0.00 0.00 0.00 0.00 0.00 0.00 0.00 0.00 0.00 0.00 0.00 0.00 0.00 0.00 0.00 0.00 0.00 0.00 0.00 0.00 0.00 0.00 0.00 0.00 0.00 0.00 0.00 0.00 0.00 0.00 0.00 0.00 0.00 0.00 0.00 0.00 0.00 0.00 0.01
0.00 0.00 0.00 0.00 0.00 0.00 0.00 0.00 0.00 0.00 0.00 0.00 0.00 0.00 0.00 0.00 0.00 0.00 0.00 0.00 0.00 0.00 0.00 0.00 0.00 0.00 0.00 0.00 0.00 0.00 0.00 0.00 0.00 0.00 0.00 0.00 0.00 0.00 0.00 0.00 0.00 0.00 0.00 0.00 0.00 0.00 0.00 0.02 0.02
0.00 0.00 0.00 0.00 0.00 0.00 0.00 0.00 0.00 0.00 0.00 0.00 0.00 0.00 0.00 0.00 0.00 0.00 0.00 0.00 0.00 0.00 0.00 0.00 0.00 0.00 0.00 0.00 0.00 0.00 0.00 0.00 0.00 0.00 0.00 0.00 0.00 0.00 0.00 0.00 0.00 0.00 0.00 0.00 0.00 0.01 0.01 0.02 0.05
MSLP
1012.31 1012.47 1012.40 1011.81 1012.14 1011.79 1011.35 1011.39 1011.05 1010.74 1010.87 1011.33 1011.49 1011.36 1012.13 1012.90 1013.40 1014.72 1015.28 1015.27 1015.04 1015.14 1015.29 1015.19 1015.15 1015.02 1014.94 1014.92 1014.98 1015.03 1014.93 1015.01 1015.14 1015.05 1014.96 1014.99 1015.02 1015.08 1015.12 1015.17 1015.07 1015.08 1015.10 1015.15 1015.20 1015.20 1015.25 1015.33 1015.45
1012.32 1012.26 1012.15 1012.13 1011.53 1011.30 1011.29 1011.22 1011.16 1011.13 1011.48 1011.65 1011.76 1012.17 1012.64 1013.85 1014.23 1014.83 1014.99 1015.65 1015.41 1015.45 1015.68 1015.67 1015.64 1015.48 1015.38 1015.38 1015.35 1015.14 1015.14 1015.13 1015.16 1015.15 1015.09 1015.08 1015.21 1015.22 1015.26 1015.28 1015.35 1015.32 1015.21 1015.29 1015.25 1015.34 1015.29 1015.29 1015.50
1012.44 1012.28 1012.12 1012.16 1012.10 1011.36 1011.06 1011.16 1011.38 1011.67 1011.64 1011.69 1012.45 1013.26 1013.94 1015.24 1015.38 1015.69 1016.21 1016.14 1015.84 1015.85 1015.81 1016.00 1015.95 1015.94 1015.72 1015.64 1015.70 1015.52 1015.54 1015.36 1015.50 1015.31 1015.33 1015.31 1015.29 1015.32 1015.37 1015.38 1015.41 1015.38 1015.33 1015.36 1015.30 1015.34 1015.40 1015.38 1015.45
1012.29 1012.27 1013.05 1012.34 1011.80 1011.75 1011.58 1011.62 1011.71 1011.82 1012.01 1012.26 1012.88 1013.97 1015.32 1016.77 1016.80 1016.91 1016.83 1016.48 1016.49 1016.64 1016.73 1016.64 1016.39 1016.23 1016.09 1016.09 1015.90 1015.85 1015.68 1015.69 1015.75 1015.63 1015.55 1015.47 1015.24 1015.28 1015.35 1015.31 1015.47 1015.40 1015.42 1015.35 1015.39 1015.36 1015.39 1015.46 1015.47
1012.62 1012.48 1012.48 1012.50 1012.16 1011.86 1011.70 1011.53 1011.71 1011.80 1012.25 1012.70 1013.21 1014.72 1016.09 1017.47 1018.03 1017.54 1017.24 1017.15 1017.27 1017.51 1017.38 1017.08 1016.95 1016.76 1016.59 1016.46 1016.24 1016.09 1016.04 1015.88 1015.94 1015.81 1015.76 1015.69 1015.50 1015.44 1015.39 1015.40 1015.47 1015.46 1015.44 1015.41 1015.36 1015.35 1015.42 1015.48 1015.35
1012.61 1012.84 1012.52 1012.43 1012.28 1012.03 1011.85 1011.76 1011.55 1011.95 1012.54 1013.16 1013.81 1015.13 1017.22 1018.22 1018.23 1018.24 1018.01 1017.87 1017.97 1018.06 1018.00 1017.89 1017.60 1017.38 1017.19 1016.98 1016.79 1016.61 1016.41 1016.31 1016.20 1016.03 1015.92 1015.77 1015.66 1015.53 1015.29 1015.30 1015.46 1015.47 1015.46 1015.43 1015.39 1015.34 1015.37 1015.51 1015.43
1012.62 1012.77 1012.72 1012.64 1012.38 1011.98 1011.80 1011.83 1011.74 1012.06 1012.67 1013.39 1013.96 1015.53 1017.38 1018.31 1018.79 1018.81 1018.53 1018.40 1018.47 1018.47 1018.51 1018.44 1018.35 1018.06 1017.72 1017.40 1017.22 1017.09 1016.91 1016.79 1016.49 1016.25 1016.11 1015.90 1015.63 1015.47 1015.32 1015.17 1015.09 1015.28 1015.41 1015.47 1015.38 1015.27 1015.23 1015.32 1015.31
1013.24 1012.96 1012.94 1012.84 1012.40 1011.92 1011.92 1011.86 1012.17 1012.36 1013.11 1013.85 1014.35 1015.49 1017.11 1018.26 1018.97 1018.85 1018.84 1018.91 1018.93 1019.04 1018.98 1019.08 1018.89 1018.65 1018.38 1018.13 1017.86 1017.54 1017.26 1017.07 1016.81 1016.62 1016.36 1015.93 1015.54 1015.40 1015.25 1015.17 1014.90 1014.94 1015.01 1015.18 1015.25 1015.15 1015.07 1015.18 1015.13
1013.56 1013.36 1012.76 1012.50 1012.46 1011.84 1011.95 1011.99 1012.43 1013.08 1013.47 1014.70 1015.77 1016.10 1016.80 1018.35 1018.89 1018.78 1018.71 1018.97 1019.26 1019.41 1019.63 1019.72 1019.45 1019.25 1018.94 1018.53 1018.23 1017.91 1017.68 1017.45 1017.06 1016.78 1016.58 1015.99 1015.66 1015.28 1015.14 1015.07 1014.98 1014.88 1014.80 1014.77 1014.83 1014.96 1014.92 1014.95 1014.98
1013.53 1013.54 1012.75 1012.34 1012.16 1012.02 1011.98 1012.00 1012.31 1012.99 1013.92 1015.33 1016.31 1017.25 1017.86 1018.60 1018.92 1018.97 1019.11 1019.42 1019.77 1020.01 1020.16 1020.23 1020.12 1019.85 1019.43 1018.98 1018.90 1018.48 1018.15 1017.90 1017.69 1017.42 1017.03 1016.54 1016.29 1015.81 1015.36 1015.00 1014.80 1014.54 1014.50 1014.48 1014.39 1014.45 1014.63 1014.80 1014.34
1013.92 1013.38 1013.11 1012.52 1012.31 1012.38 1012.28 1012.32 1012.80 1013.29 1014.25 1014.83 1015.64 1017.19 1018.28 1018.79 1019.18 1019.23 1019.51 1019.88 1020.32 1020.67 1020.70 1020.63 1020.63 1020.38 1019.93 1019.51 1019.18 1018.78 1018.58 1018.42 1018.14 1017.88 1017.62 1017.19 1016.70 1016.21 1015.54 1015.02 1014.52 1014.27 1014.07 1013.86 1013.84 1013.75 1013.83 1013.79 1014.04
1013.98 1013.47 1013.28 1012.86 1012.78 1012.52 1012.58 1012.74 1013.26 1013.92 1014.67 1014.94 1016.38 1017.32 1018.23 1018.95 1019.26 1019.62 1020.01 1020.37 1020.76 1021.00 1021.16 1021.12 1021.06 1020.75 1020.43 1019.95 1019.55 1019.16 1018.81 1018.74 1018.53 1018.31 1018.06 1017.56 1017.02 1016.63 1016.20 1015.65 1015.22 1014.48 1014.02 1013.63 1013.49 1013.37 1013.17 1013.22 1013.45
1013.92 1013.70 1013.38 1013.19 1013.12 1012.84 1012.76 1013.05 1013.56 1014.87 1015.71 1015.99 1017.08 1017.98 1018.76 1019.50 1020.22 1020.59 1020.75 1020.98 1021.31 1021.34 1021.55 1021.64 1021.51 1021.23 1020.79 1020.27 1019.98 1019.68 1019.41 1019.14 1019.00 1018.60 1018.41 1018.14 1017.63 1017.23 1016.76 1016.17 1015.72 1015.05 1014.62 1013.75 1013.38 1012.88 1012.77 1012.71 1012.74
1014.05 1013.82 1013.55 1013.23 1013.12 1012.93 1012.86 1013.41 1013.78 1015.74 1016.50 1016.98 1017.58 1018.36 1019.08 1019.75 1020.42 1021.12 1021.54 1021.59 1021.71 1021.64 1021.76 1021.88 1021.63 1021.42 1021.08 1020.70 1020.48 1020.17 1019.77 1019.40 1019.09 1018.85 1018.76 1018.56 1018.20 1017.81 1017.27 1016.71 1016.02 1015.35 1014.79 1014.34 1013.83 1012.92 1012.51 1012.34 1012.20
1014.05 1014.05 1013.71 1013.11 1012.93 1012.88 1012.93 1013.56 1014.15 1015.36 1016.72 1017.44 1018.07 1018.80 1019.37 1020.01 1020.60 1020.90 1021.25 1021.62 1022.03 1022.06 1022.05 1021.90 1021.53 1021.45 1021.10 1020.69 1020.44 1020.18 1019.96 1019.62 1019.32 1019.13 1018.88 1018.66 1018.38 1017.96 1017.48 1016.87 1016.36 1015.79 1015.29 1014.86 1014.17 1013.42 1012.29 1012.10 1011.80
1014.30 1014.30 1013.97 1013.22 1012.95 1013.11 1013.28 1013.24 1014.01 1015.40 1016.17 1017.44 1018.24 1018.94 1019.74 1020.49 1020.90 1021.28 1021.68 1021.86 1021.90 1021.92 1021.91 1021.90 1021.86 1021.64 1020.81 1020.51 1020.40 1020.34 1020.11 1019.67 1019.35 1019.23 1019.00 1018.75 1018.46 1018.14 1017.55 1016.87 1016.35 1015.95 1015.47 1014.92 1014.39 1013.67 1012.91 1011.80 1011.70
1014.84 1014.26 1014.00 1013.60 1013.29 1013.40 1013.67 1013.65 1014.56 1015.77 1016.54 1017.13 1018.02 1018.73 1019.56 1020.48 1021.07 1021.61 1021.96 1022.08 1022.21 1022.46 1022.31 1022.09 1021.92 1021.35 1021.05 1020.93 1021.00 1020.93 1020.33 1019.63 1019.38 1019.13 1018.81 1018.61 1018.24 1018.01 1017.54 1016.96 1016.43 1016.18 1015.51 1014.94 1014.44 1013.88 1013.28 1012.41 1011.02
1014.68 1014.55 1014.17 1013.70 1013.67 1013.51 1013.73 1013.94 1014.92 1015.79 1016.58 1017.56 1018.30 1018.90 1019.44 1020.21 1020.95 1021.70 1022.13 1022.37 1022.62 1022.75 1022.62 1022.31 1022.04 1021.80 1021.71 1021.62 1021.33 1020.73 1019.95 1019.66 1019.20 1018.93 1018.67 1018.55 1018.25 1018.04 1017.50 1016.89 1016.33 1015.93 1015.69 1015.43 1014.80 1014.14 1013.22 1012.59 1011.86
1014.91 1014.87 1014.52 1014.01 1013.77 1013.82 1013.25 1013.56 1014.33 1015.65 1016.54 1017.26 1018.27 1018.99 1019.57 1020.32 1021.25 1021.95 1022.38 1022.61 1022.79 1022.87 1022.76 1022.61 1022.22 1022.16 1022.09 1021.78 1021.26 1020.31 1019.45 1019.11 1018.93 1018.87 1018.77 1018.49 1018.20 1018.06 1017.52 1016.82 1016.18 1015.73 1015.40 1015.22 1015.00 1014.59 1013.52 1012.07 1011.64
1015.37 1015.17 1014.72 1014.26 1013.85 1013.96 1013.32 1013.18 1013.88 1015.03 1015.63 1016.38 1017.40 1018.59 1019.47 1020.44 1021.10 1021.71 1022.09 1022.51 1022.80 1022.92 1022.94 1022.73 1022.63 1022.55 1022.29 1021.83 1021.37 1020.67 1019.90 1019.37 1019.20 1018.94 1018.61 1018.51 1018.27 1018.01 1017.50 1016.88 1016.30 1015.75 1015.26 1015.09 1014.73 1014.52 1013.75 1012.53 1011.72
1015.28 1015.08 1014.80 1014.63 1014.14 1013.80 1013.60 1013.08 1014.05 1015.07 1015.82 1016.60 1017.56 1018.60 1019.63 1020.14 1020.95 1021.70 1022.16 1022.61 1022.79 1022.73 1022.75 1022.81 1022.97 1022.87 1022.35 1021.73 1021.02 1020.42 1019.80 1019.38 1019.07 1018.96 1018.50 1018.14 1018.06 1017.92 1017.45 1016.99 1016.36 1015.79 1015.46 1014.93 1014.47 1014.09 1013.65 1012.81 1011.84
1014.80 1014.49 1014.52 1014.70 1014.69 1014.00 1013.97 1012.66 1013.26 1014.43 1015.36 1016.41 1017.08 1018.03 1019.06 1020.05 1021.02 1021.65 1022.10 1022.48 1022.80 1022.88 1023.10 1023.07 1022.87 1022.58 1022.12 1021.78 1021.19 1020.68 1020.21 1019.82 1019.73 1019.26 1018.71 1018.06 1017.72 1017.50 1017.23 1016.75 1016.33 1015.84 1015.45 1014.80 1014.17 1013.52 1013.07 1012.81 1011.70
1014.34 1014.37 1014.68 1014.72 1014.58 1014.35 1014.04 1014.17 1012.56 1014.09 1015.09 1015.39 1016.37 1017.54 1018.73 1019.86 1020.78 1021.59 1022.20 1022.60 1022.93 1023.20 1023.16 1022.88 1022.64 1022.34 1022.03 1021.62 1021.27 1020.82 1020.63 1020.40 1019.85 1019.16 1018.30 1017.67 1017.54 1017.56 1017.23 1016.49 1016.30 1015.85 1015.20 1014.47 1013.93 1013.21 1012.52 1012.11 1011.69
1014.20 1014.69 1015.04 1015.16 1014.89 1014.02 1013.35 1013.86 1010.55 1012.83 1013.35 1014.38 1016.13 1017.56 1018.74 1019.82 1020.83 1021.70 1022.28 1022.72 1022.98 1023.06 1022.96 1022.79 1022.53 1022.03 1021.74 1021.45 1021.32 1021.35 1020.96 1020.13 1019.48 1018.83 1018.09 1017.75 1017.69 1017.28 1017.02 1016.37 1016.00 1015.43 1014.68 1014.11 1013.60 1012.78 1012.05 1011.46 1011.00
1013.80 1014.45 1014.88 1015.11 1014.89 1013.15 1013.20 1013.46 1010.83 1012.88 1013.64 1014.12 1015.07 1016.68 1018.48 1019.81 1020.84 1021.52 1022.03 1022.44 1022.76 1023.00 1023.07 1022.69 1022.29 1021.91 1021.85 1021.76 1021.59 1021.19 1020.68 1020.04 1019.45 1018.83 1018.32 1017.99 1017.64 1017.23 1016.92 1016.23 1015.40 1014.95 1014.21 1013.70 1013.13 1012.29 1011.51 1010.94 1010.33
1013.09 1013.25 1013.67 1013.77 1013.92 1013.35 1013.71 1012.70 1012.33 1013.81 1014.44 1014.68 1015.41 1016.86 1018.41 1019.80 1020.78 1021.50 1022.11 1022.58 1022.93 1023.17 1023.10 1022.82 1022.45 1022.16 1021.92 1021.44 1021.05 1020.81 1020.51 1019.81 1019.47 1019.20 1018.80 1018.26 1017.72 1017.34 1016.65 1015.95 1015.08 1014.38 1013.73 1013.17 1012.56 1011.77 1010.82 1010.28 1009.56
1012.68 1013.08 1013.14 1013.47 1014.19 1013.90 1012.75 1012.54 1013.45 1014.22 1014.87 1015.49 1016.28 1017.46 1018.50 1019.66 1020.66 1021.35 1021.99 1022.53 1022.94 1023.01 1023.02 1022.98 1022.70 1022.29 1021.87 1021.45 1021.00 1020.64 1020.31 1020.02 1019.69 1019.40 1018.73 1018.21 1017.62 1017.09 1016.16 1015.55 1014.48 1013.82 1013.18 1012.59 1011.85 1011.12 1010.11 1009.47 1008.86
1012.44 1012.80 1013.43 1014.18 1014.46 1013.62 1012.02 1012.37 1012.21 1013.75 1014.65 1015.91 1016.87 1017.63 1018.78 1019.64 1020.42 1021.19 1021.94 1022.41 1022.69 1022.93 1022.95 1022.82 1022.63 1022.30 1022.10 1021.74 1021.32 1020.95 1020.68 1020.13 1019.87 1019.45 1018.62 1017.86 1017.58 1016.85 1015.96 1015.13 1013.89 1013.32 1012.69 1012.12 1011.56 1010.66 1009.90 1008.84 1008.19
1012.88 1012.88 1013.12 1013.28 1013.10 1012.38 1011.77 1011.12 1011.55 1012.74 1014.00 1015.16 1016.22 1017.19 1018.25 1019.33 1020.32 1021.19 1021.97 1022.43 1022.70 1022.81 1022.73 1022.65 1022.57 1022.42 1022.00 1021.83 1021.66 1021.36 1020.78 1020.21 1019.88 1019.45 1018.61 1017.95 1017.36 1016.57 1015.84 1014.94 1013.61 1012.94 1012.35 1011.81 1011.17 1010.28 1009.44 1008.20 1007.42
1012.50 1012.66 1012.81 1013.09 1012.75 1012.62 1012.09 1010.47 1011.81 1012.88 1013.66 1014.99 1016.27 1017.27 1018.28 1019.20 1020.09 1020.98 1021.87 1022.60 1022.79 1022.89 1022.84 1022.79 1022.68 1022.52 1022.46 1022.30 1021.95 1021.50 1020.83 1020.37 1019.82 1019.27 1018.67 1017.94 1017.05 1016.34 1015.65 1014.74 1013.53 1012.63 1012.08 1011.50 1010.76 1009.74 1008.90 1008.02 1006.88
Thickness
5759 5758 5758 5758 5742 5734 5723 5727 5735 5738 5740 5744 5745 5746 5735 5731 5720 5702 5728 5730 5732 5730 5727 5727 5728 5729 5728 5728 5726 5724 5724 5723 5721 5721 5721 5720 5719 5717 5715 5714 5713 5711 5709 5707 5704 5704 5703 5702 5700
5756 5755 5753 5740 5735 5725 5724 5728 5729 5735 5738 5741 5742 5738 5732 5716 5729 5727 5728 5726 5726 5726 5723 5722 5723 5722 5722 5722 5721 5722 5721 5720 5719 5718 5719 5718 5716 5715 5713 5711 5709 5707 5707 5704 5703 5700 5700 5701 5698
5752 5752 5744 5728 5711 5721 5724 5730 5731 5731 5738 5738 5730 5730 5724 5712 5721 5721 5718 5719 5719 5720 5720 5717 5717 5716 5717 5718 5716 5716 5716 5717 5715 5716 5715 5715 5714 5713 5711 5709 5706 5705 5703 5701 5701 5699 5698 5698 5696
5747 5745 5730 5723 5716 5720 5720 5725 5729 5730 5732 5733 5728 5714 5715 5708 5711 5712 5712 5713 5712 5710 5709 5709 5711 5711 5711 5710 5711 5710 5711 5710 5709 5710 5710 5709 5710 5709 5708 5707 5704 5703 5701 5699 5698 5697 5696 5695 5694
5737 5731 5716 5707 5707 5715 5722 5727 5728 5725 5723 5722 5723 5706 5702 5700 5700 5705 5708 5707 5704 5700 5699 5700 5701 5701 5702 5702 5704 5705 5704 5705 5704 5704 5704 5704 5704 5704 5704 5703 5700 5698 5698 5696 5695 5694 5693 5693 5692
5726 5720 5708 5702 5701 5711 5718 5721 5727 5722 5719 5716 5713 5704 5690 5692 5695 5696 5698 5697 5695 5693 5691 5689 5690 5691 5692 5694 5696 5697 5698 5697 5697 5698 5699 5699 5699 5700 5700 5699 5697 5694 5693 5693 5692 5691 5690 5689 5689
5715 5709 5700 5695 5697 5706 5714 5719 5719 5717 5714 5710 5714 5694 5689 5686 5686 5687 5689 5689 5688 5686 5683 5682 5681 5682 5684 5687 5688 5689 5690 5691 5693 5693 5693 5694 5696 5696 5696 5696 5695 5693 5689 5688 5688 5688 5687 5686 5686
5707 5706 5691 5688 5695 5702 5710 5714 5713 5713 5705 5710 5709 5692 5684 5682 5680 5682 5681 5679 5679 5675 5674 5672 5673 5674 5675 5677 5678 5681 5683 5684 5685 5686 5688 5690 5691 5691 5691 5691 5692 5691 5689 5686 5684 5685 5685 5683 5683
5700 5693 5689 5691 5688 5701 5706 5704 5706 5704 5701 5691 5684 5687 5688 5677 5674 5675 5676 5673 5670 5668 5664 5662 5663 5664 5666 5668 5671 5673 5674 5676 5678 5680 5681 5684 5684 5686 5686 5686 5686 5686 5685 5685 5684 5681 5681 5681 5681
5692 5683 5689 5698 5697 5695 5699 5701 5700 5697 5691 5680 5677 5673 5672 5668 5666 5666 5665 5662 5659 5656 5654 5653 5654 5655 5657 5659 5660 5663 5665 5667 5668 5669 5672 5675 5676 5677 5680 5681 5682 5683 5682 5681 5681 5681 5678 5677 5679
5677 5682 5683 5692 5695 5693 5691 5693 5692 5688 5680 5681 5679 5669 5663 5660 5658 5659 5656 5652 5646 5643 5643 5644 5644 5645 5647 5649 5651 5653 5655 5656 5658 5660 5662 5664 5667 5669 5673 5675 5677 5678 5679 5679 5679 5679 5678 5678 5676
5673 5679 5679 5684 5685 5687 5685 5686 5683 5680 5677 5680 5670 5665 5659 5653 5653 5650 5646 5642 5637 5635 5634 5634 5633 5635 5637 5640 5642 5645 5647 5647 5648 5649 5651 5654 5657 5659 5661 5664 5666 5671 5673 5675 5675 5675 5677 5677 5675
5667 5670 5673 5676 5673 5678 5680 5678 5675 5663 5660 5665 5659 5654 5648 5644 5638 5635 5633 5630 5626 5626 5624 5622 5623 5625 5628 5631 5633 5635 5636 5638 5639 5641 5642 5643 5645 5647 5651 5654 5656 5660 5663 5669 5671 5672 5672 5675 5674
5659 5662 5663 5667 5668 5671 5673 5667 5671 5652 5650 5649 5649 5645 5640 5636 5631 5625 5621 5620 5618 5617 5616 5614 5616 5618 5621 5623 5624 5625 5627 5630 5631 5633 5633 5633 5635 5637 5639 5643 5648 5651 5655 5658 5662 5667 5668 5669 5672
5652 5649 5653 5662 5665 5665 5667 5658 5661 5652 5643 5640 5638 5635 5633 5629 5625 5622 5619 5615 5609 5609 5609 5610 5612 5612 5614 5617 5618 5620 5620 5621 5622 5622 5624 5624 5625 5627 5631 5634 5637 5640 5643 5646 5651 5656 5663 5663 5666
5639 5638 5639 5653 5654 5654 5658 5656 5656 5644 5642 5634 5631 5629 5623 5618 5615 5613 5611 5609 5608 5607 5606 5606 5604 5604 5610 5612 5612 5611 5611 5613 5613 5613 5613 5613 5615 5617 5621 5625 5628 5630 5634 5636 5639 5642 5648 5658 5658
5624 5632 5628 5636 5644 5644 5645 5648 5643 5636 5634 5631 5628 5625 5620 5612 5609 5605 5603 5601 5600 5597 5598 5599 5599 5602 5603 5603 5601 5599 5602 5605 5605 5605 5605 5606 5607 5608 5610 5613 5616 5616 5620 5624 5627 5630 5633 5641 5652
5621 5621 5624 5633 5641 5640 5638 5642 5631 5628 5626 5622 5619 5617 5616 5612 5606 5599 5595 5593 5591 5589 5588 5590 5592 5593 5593 5592 5592 5594 5597 5597 5599 5598 5597 5596 5597 5597 5600 5603 5606 5607 5606 5605 5609 5615 5621 5626 5631
5618 5614 5617 5625 5632 5629 5640 5639 5635 5623 5619 5614 5611 5610 5609 5604 5595 5590 5587 5585 5582 5581 5581 5581 5584 5584 5583 5584 5586 5591 5593 5593 5591 5588 5586 5586 5586 5585 5589 5592 5594 5595 5596 5594 5591 5592 5600 5614 5617
5606 5607 5612 5618 5623 5619 5630 5636 5632 5623 5625 5621 5614 5606 5602 5593 5590 5586 5583 5579 5576 5573 5572 5573 5573 5573 5573 5575 5576 5579 5582 5583 5581 5579 5577 5576 5575 5573 5575 5579 5580 5582 5583 5579 5576 5572 5574 5587 5594
5598 5601 5601 5608 5612 5616 5617 5632 5617 5614 5612 5611 5606 5600 5592 5591 5585 5578 5575 5570 5568 5568 5566 5563 5560 5560 5562 5565 5569 5571 5572 5572 5572 5569 5568 5567 5564 5561 5562 5564 5566 5567 5564 5564 5560 5553 5553 5560 5572
5593 5603 5605 5600 5599 5605 5608 5622 5625 5612 5611 5605 5606 5599 5592 5582 5573 5569 5566 5563 5559 5557 5554 5552 5552 5553 5554 5554 5557 5559 5559 5558 5555 5556 5557 5558 5555 5553 5551 5553 5551 5550 5549 5547 5544 5544 5544 5547 5558
5596 5596 5593 5591 5590 5591 5600 5599 5633 5605 5602 5608 5603 5595 5586 5576 5569 5560 5555 5550 5547 5543 5542 5544 5544 5545 5544 5545 5545 5545 5543 5542 5544 5547 5550 5550 5545 5540 5538 5540 5535 5535 5536 5534 5532 5533 5537 5541 5545
5586 5581 5576 5572 5577 5582 5597 5598 5648 5617 5622 5612 5597 5585 5574 5566 5557 5549 5543 5538 5536 5533 5533 5533 5534 5536 5534 5533 5532 5529 5528 5533 5535 5538 5539 5537 5533 5531 5526 5527 5524 5524 5526 5524 5522 5525 5530 5535 5538
5579 5572 5564 5561 5559 5582 5583 5588 5638 5604 5603 5605 5598 5585 5568 5556 5548 5542 5537 5532 5526 5522 5519 5521 5523 5524 5521 5518 5516 5516 5518 5521 5523 5525 5525 5522 5521 5519 5516 5516 5518 5516 5516 5515 5513 5516 5522 5526 5531
5566 5572 5564 5555 5559 5578 5564 5582 5610 5583 5578 5584 5585 5574 5555 5543 5535 5529 5523 5518 5513 5509 5507 5507 5508 5508 5506 5507 5507 5507 5508 5511 5510 5508 5507 5507 5507 5505 5506 5507 5509 5510 5509 5508 5506 5509 5515 5519 5523
5560 5554 5572 5556 5544 5547 5570 5580 5564 5565 5563 5561 5557 5549 5542 5533 5524 5518 5511 5505 5500 5498 5495 5492 5491 5493 5494 5495 5496 5496 5496 5495 5494 5493 5495 5494 5494 5494 5498 5498 5502 5502 5502 5500 5501 5500 5506 5509 5513
5554 5557 5541 5528 5516 5525 5567 5566 5588 5563 5561 5546 5541 5537 5527 5521 5515 5508 5499 5493 5489 5485 5483 5480 5478 5479 5480 5480 5480 5480 5479 5480 5479 5479 5482 5483 5480 5482 5486 5489 5494 5494 5493 5491 5488 5490 5492 5498 5501
5535 5536 5540 5539 5539 5542 5550 5573 5573 5567 5556 5544 5536 5529 5520 5512 5504 5495 5486 5480 5477 5474 5471 5468 5466 5465 5467 5465 5463 5462 5462 5463 5463 5464 5467 5468 5468 5471 5473 5477 5483 5483 5482 5479 5478 5478 5478 5486 5489
5532 5533 5536 5525 5537 5533 5543 5567 5553 5550 5548 5537 5525 5515 5509 5502 5492 5483 5474 5465 5462 5458 5456 5454 5453 5451 5449 5446 5445 5445 5447 5448 5449 5450 5450 5453 5457 5458 5461 5465 5470 5472 5471 5469 5468 5469 5469 5472 5475